Harlan, IA

6:02 PM CST on December 08, 2019 (GMT -0600)
Harlan Municipal

Weather History for KHNR - October, 2019

Change the Weather History Date:

Thursday, October 10, 2019

  Actual Average Record
Temperature  
Mean Temperature 42 °F -  
Max Temperature 48 °F 63 °F 85 °F (1962)
Min Temperature 37 °F 38 °F 21 °F (2000)
Degree Days  
Heating Degree Days 22    
Moisture  
Dew Point 40 °F    
Average Humidity 99    
Maximum Humidity 100    
Minimum Humidity 93    
Precipitation  
Precipitation 0.03 in - - ()
Sea Level Pressure  
Sea Level Pressure 29.86 in    
Wind  
Wind Speed 14 mph ()    
Max Wind Speed 21 mph    
Max Gust Speed 29 mph    
Visibility 5.3 miles    
Events Rain    
Averages and records for this station are not official NWS values.
T = Trace of Precipitation, MM = Missing Value Source: Averaged Metar Reports

Daily Weather History Graph

Daily Weather History Graph

Search for Another Location

Airport or City:

Astronomy

Oct. 10, 2019 Rise Set
Actual Time 7:27 AM CDT 6:48 PM CDT
Civil Twilight 6:59 AM CDT 7:16 PM CDT
Nautical Twilight 6:27 AM CDT 7:48 PM CDT
Astronomical Twilight 5:55 AM CDT 8:20 PM CDT
Moon 5:53 PM CDT (10/10) 4:08 AM CDT (10/10)
Length of Visible Light 12h 16m
Length of Day
11h 20m
Waxing Gibbous, 91% of the Moon is Illuminated
Oct 10
Waxing Gibbous
Oct 13
Full
Oct 21
Last Quarter
Oct 27
New
Nov 4
First Quarter

Hourly Weather History & Observations

Time (CDT) Temp. Windchill Dew Point Humidity Pressure Visibility Wind Dir Wind Speed Gust Speed Precip Events Conditions
12:15 AM - - - N/A% - - North - - N/A   Unknown
12:35 AM - - - N/A% - - North - - N/A   Unknown
12:55 AM - - - N/A% - - North - - N/A   Unknown
1:15 AM - - - N/A% - - North - - N/A   Unknown
1:35 AM - - - N/A% - - North - - N/A   Unknown
1:55 AM - - - N/A% - - North - - N/A   Unknown
2:15 AM - - - N/A% - - North - - N/A   Unknown
2:35 AM - - - N/A% - - North - - N/A   Unknown
2:55 AM - - - N/A% - - North - - N/A   Unknown
3:15 AM - - - N/A% - - North - - N/A   Unknown
3:35 AM - - - N/A% - - North - - N/A   Unknown
3:55 AM - - - N/A% - - North - - N/A   Unknown
4:15 AM - - - N/A% - - North - - N/A   Unknown
4:35 AM - - - N/A% - - North - - N/A   Unknown
4:55 AM - - - N/A% - - North - - N/A   Unknown
5:15 AM - - - N/A% - - North - - N/A   Unknown
5:35 AM - - - N/A% - - North - - N/A   Unknown
5:55 AM - - - N/A% - - North - - N/A   Unknown
6:15 AM - - - N/A% - - North - - N/A   Unknown
6:35 AM - - - N/A% - - North - - N/A   Unknown
6:55 AM - - - N/A% - - North - - N/A   Unknown
7:15 AM - - - N/A% - - North - - N/A   Unknown
7:35 AM - - - N/A% - - North - - N/A   Unknown
7:55 AM - - - N/A% - - North - - N/A   Unknown
8:15 AM - - - N/A% - - North - - N/A   Unknown
8:35 AM - - - N/A% - - North - - N/A   Unknown
8:55 AM - - - N/A% - - North - - N/A   Unknown
9:15 AM - - - N/A% - - North - - N/A   Unknown
9:35 AM - - - N/A% - - North - - N/A   Unknown
9:55 AM - - - N/A% - - North - - N/A   Unknown
10:15 AM - - - N/A% - - North - - N/A   Unknown
10:35 AM - - - N/A% - - North - - N/A   Unknown
10:55 AM - - - N/A% - - North - - N/A   Unknown
11:15 AM - - - N/A% - - North - - N/A   Unknown
11:35 AM - - - N/A% - - North - - N/A   Unknown
11:55 AM - - - N/A% - - North - - N/A   Unknown
12:15 PM - - - N/A% - - North - - N/A   Unknown
12:35 PM - - - N/A% - - North - - N/A   Unknown
12:55 PM - - - N/A% - - North - - N/A   Unknown
1:15 PM - - - N/A% - - North - - N/A   Unknown
1:35 PM - - - N/A% 29.75 in - North - - N/A   Unknown
1:55 PM 48.2 °F - 48.2 °F 100% 29.75 in 1.8 mi NNW 11.5 mph - 0.01 in   Mist
2:15 PM 46.4 °F 40.4 °F 46.4 °F 100% 29.75 in 1.8 mi NW 13.8 mph - N/A   Mist
2:35 PM 46.4 °F 39.8 °F 46.4 °F 100% 29.75 in 1.8 mi NW 16.1 mph - N/A   Mostly Cloudy
2:55 PM 44.6 °F 37.4 °F 44.6 °F 100% 29.77 in 1.5 mi NW 16.1 mph 24.2 mph N/A   Mostly Cloudy
3:15 PM - - - N/A% 29.78 in 1.2 mi NW 16.1 mph 25.3 mph N/A   Scattered Clouds
3:35 PM 42.8 °F 35.8 °F 42.8 °F 100% 29.78 in 1.2 mi NW 13.8 mph 21.9 mph N/A   Scattered Clouds
3:55 PM 42.8 °F 34.8 °F 42.8 °F 100% 29.78 in 1.0 mi NW 17.3 mph 26.5 mph 0.01 in   Scattered Clouds
4:35 PM 42.8 °F 36.2 °F 42.8 °F 100% 29.80 in 1.2 mi NW 12.7 mph 23.0 mph N/A   Scattered Clouds
4:55 PM 41.0 °F 31.9 °F 41.0 °F 100% 29.80 in 1.2 mi NW 19.6 mph - N/A Rain Light Rain
5:15 PM 41.0 °F 32.5 °F 41.0 °F 100% 29.81 in 3.0 mi NW 17.3 mph 25.3 mph N/A   Mostly Cloudy
5:35 PM 41.0 °F 32.8 °F 41.0 °F 100% 29.81 in 3.0 mi NNW 16.1 mph 24.2 mph N/A   Mostly Cloudy
5:55 PM 41.0 °F 31.9 °F 41.0 °F 100% 29.82 in 5.0 mi NW 19.6 mph 27.6 mph N/A   Mostly Cloudy
6:15 PM 39.2 °F 29.8 °F 39.2 °F 100% 29.83 in 9.0 mi NW 18.4 mph 28.8 mph N/A   Overcast
6:35 PM 39.2 °F 29.6 °F 39.2 °F 100% 29.84 in 5.0 mi NW 19.6 mph - N/A   Overcast
6:55 PM 39.2 °F 29.8 °F 39.2 °F 100% 29.84 in 7.0 mi NW 18.4 mph 27.6 mph N/A   Overcast
7:15 PM 39.2 °F 30.5 °F 39.2 °F 100% 29.87 in 5.0 mi NW 16.1 mph 26.5 mph N/A Rain Light Rain
7:35 PM 37.4 °F 27.5 °F 37.4 °F 100% 29.87 in 5.0 mi NW 18.4 mph 27.6 mph N/A Rain Light Rain
7:55 PM 37.4 °F 27.5 °F 37.4 °F 100% 29.88 in 6.0 mi NW 18.4 mph 26.5 mph 0.01 in   Mostly Cloudy
8:15 PM 37.4 °F 27.8 °F 37.4 °F 100% 29.89 in 7.0 mi NW 17.3 mph 24.2 mph N/A   Mostly Cloudy
8:35 PM 37.4 °F 28.2 °F 37.4 °F 100% 29.90 in 4.0 mi NW 16.1 mph 26.5 mph N/A Rain Light Rain
8:55 PM 37.4 °F 27.8 °F 37.4 °F 100% 29.91 in 10.0 mi NW 17.3 mph 26.5 mph N/A   Overcast
9:15 PM 37.4 °F 28.2 °F 37.4 °F 100% 29.92 in 6.0 mi NW 16.1 mph 25.3 mph N/A   Overcast
9:35 PM 37.4 °F 27.5 °F 37.4 °F 100% 29.93 in 4.0 mi WNW 18.4 mph - N/A   Overcast
9:55 PM 37.4 °F 26.9 °F 37.4 °F 100% 29.94 in 8.0 mi NW 20.7 mph 28.8 mph N/A   Overcast
10:15 PM 37.4 °F 28.2 °F 37.4 °F 100% 29.95 in 10.0 mi NW 16.1 mph 24.2 mph N/A   Overcast
10:35 PM 37.4 °F 27.8 °F 35.6 °F 93% 29.96 in 10.0 mi NW 17.3 mph 24.2 mph N/A   Overcast
10:55 PM 37.4 °F 28.5 °F 35.6 °F 93% 29.97 in 10.0 mi WNW 15.0 mph 27.6 mph N/A   Overcast
11:15 PM 37.4 °F 28.9 °F 35.6 °F 93% 29.96 in 10.0 mi NW 13.8 mph 23.0 mph N/A   Overcast
11:35 PM 37.4 °F 26.9 °F 35.6 °F 93% 29.97 in 10.0 mi NW 20.7 mph 27.6 mph N/A   Overcast
11:55 PM 37.4 °F 28.9 °F 35.6 °F 93% 29.97 in 10.0 mi WNW 13.8 mph 20.7 mph N/A   Overcast